Wind_Gust
19 24 27 27 25 25 24 26 28 27 26 27 27 27 29 29 26 23 24 25 18 25 27 30 36 32 28 25 23 22 21 25 25 23 23 23 24 23 27 29 28 29 30 21 16 14 19 25 30 30 31 30 22 23 26 27 26 26 28 26 28 29 27 23 26 27 27 27 24 21 22 23 21 21 18 16 15 18 18 19 19 18 18 16 14 15
19 28 29 26 26 25 24 24 26 27 27 27 26 24 27 25 28 26 26 23 23 27 25 24 27 31 24 25 26 26 27 28 23 22 24 26 26 24 23 27 30 28 29 25 17 17 16 23 21 22 23 26 25 23 25 29 30 28 26 28 29 26 28 24 26 26 24 23 28 28 25 23 23 21 22 20 17 18 16 19 19 18 17 17 15 14
24 31 28 27 28 27 28 28 29 31 31 28 28 24 26 28 26 26 28 23 23 25 30 28 30 30 31 30 27 29 30 28 25 25 23 22 25 28 27 23 23 26 26 27 26 16 17 25 33 25 22 24 29 27 28 28 28 27 27 27 27 27 29 26 26 26 26 19 20 23 22 22 21 15 13 13 12 14 17 18 18 18 18 17 15 15
21 30 28 24 22 22 27 30 30 29 32 30 26 26 28 25 25 26 24 22 25 35 28 25 31 32 32 32 27 27 30 29 27 27 26 26 25 24 28 27 21 25 29 27 27 19 15 25 23 23 25 24 23 26 27 27 28 27 27 25 26 29 27 25 23 22 19 17 14 14 17 16 16 17 12 11 12 13 16 19 19 19 18 17 16 17
29 23 18 17 22 23 25 25 27 28 25 27 28 29 31 25 25 27 24 24 24 24 22 25 33 36 31 34 33 29 33 34 31 29 30 28 26 23 21 24 26 20 23 30 25 17 15 22 24 24 25 24 27 26 27 27 28 25 24 25 28 27 28 24 23 21 20 20 17 17 15 13 12 11 14 13 14 18 18 18 18 20 18 17 16 16
30 26 23 22 21 23 26 26 27 23 24 31 30 30 26 26 28 26 25 25 25 26 26 25 35 37 26 31 37 33 34 28 26 29 29 27 28 28 28 24 25 27 18 27 26 23 19 23 24 29 30 27 31 29 27 27 28 26 27 25 25 24 24 25 23 22 23 23 24 24 24 24 22 21 21 23 26 24 24 23 16 16 17 17 15 16
24 19 20 21 23 24 24 27 25 20 22 25 30 22 24 25 28 29 29 26 29 31 21 23 32 38 22 28 27 29 31 31 31 34 33 31 30 30 29 29 28 27 25 20 23 19 25 19 26 26 26 34 32 31 29 27 28 28 27 25 27 26 24 24 23 23 23 21 21 23 23 23 26 27 24 18 12 14 14 14 16 17 15 16 17 15
18 20 23 25 26 26 25 28 26 23 22 37 24 21 23 25 23 22 24 27 30 25 29 27 32 35 35 30 28 30 31 32 34 34 34 35 31 30 27 30 27 28 25 25 19 25 28 21 24 26 28 33 37 36 28 26 28 27 27 26 24 24 24 23 24 25 24 23 21 20 19 19 20 19 18 16 13 12 15 15 16 16 15 15 16 16
21 25 22 22 21 28 27 22 19 25 32 30 16 17 20 18 21 23 27 28 27 25 30 29 29 42 37 31 26 28 31 31 33 35 35 33 30 30 30 32 30 29 28 27 24 18 31 24 25 25 27 27 29 25 27 28 28 26 27 27 25 28 28 24 24 25 23 21 21 21 20 19 18 16 16 13 13 15 15 15 15 16 15 15 14 16
28 22 23 25 26 24 22 24 24 21 24 18 21 26 26 20 21 26 26 28 28 29 30 29 29 41 33 29 32 29 34 34 34 34 33 28 31 30 31 29 29 30 27 28 27 17 24 26 29 28 26 25 25 26 31 28 33 30 26 25 26 26 26 26 24 24 22 20 20 21 18 18 18 15 16 15 16 16 15 16 17 16 16 15 14 14
30 23 24 27 22 28 26 24 25 22 26 20 20 21 20 23 23 24 28 30 28 32 33 31 33 34 40 27 31 32 34 32 32 30 25 28 31 31 27 29 29 30 31 27 25 22 19 30 30 29 28 24 24 24 27 29 31 31 29 28 28 27 25 27 26 24 23 22 21 20 18 18 18 16 18 18 18 18 16 17 17 17 16 15 16 14
29 27 23 20 22 28 24 29 23 25 24 20 20 20 19 23 23 24 24 22 29 33 30 33 34 32 44 29 31 29 26 31 32 30 33 32 32 33 29 31 30 31 30 28 32 26 24 27 32 30 31 29 27 27 27 23 25 24 27 28 27 28 26 26 26 24 23 22 21 18 18 18 17 18 20 19 19 20 18 17 18 15 15 15 14 14
23 22 19 15 11 25 25 24 23 23 20 20 19 15 16 18 14 27 23 28 31 36 31 30 32 39 44 33 31 29 29 34 35 35 31 30 33 28 30 30 32 32 30 31 30 26 22 28 36 32 30 30 29 27 29 28 27 28 25 29 30 27 28 29 27 25 24 22 21 20 20 18 18 18 19 18 18 18 19 18 17 18 18 16 15 16
20 17 15 13 12 12 22 21 15 16 17 21 22 17 18 21 22 23 23 27 30 30 30 33 30 46 31 34 34 37 35 35 31 30 33 33 27 33 30 30 29 29 30 30 28 26 22 28 35 29 32 29 28 29 30 28 30 27 28 28 28 30 30 29 27 27 26 25 23 21 20 19 19 18 19 17 19 17 17 18 19 19 19 18 18 16
21 18 11 14 13 18 20 19 17 16 12 19 17 21 21 21 23 20 24 27 26 27 27 24 35 33 28 25 27 35 34 35 36 37 31 28 27 26 26 31 34 34 33 38 31 27 23 28 33 31 29 31 29 27 29 29 28 30 30 32 35 33 31 28 28 26 27 25 23 22 21 21 18 18 18 18 18 19 18 17 18 17 16 17 17 19
14 21 19 13 12 23 18 20 21 14 17 22 22 19 24 28 15 25 21 25 25 27 29 27 32 19 32 23 26 30 32 33 33 35 36 36 30 28 33 30 36 34 37 37 30 30 25 27 33 33 32 30 28 28 28 27 29 30 30 30 34 33 31 32 31 30 29 29 27 23 21 20 19 18 17 16 17 19 19 18 18 18 17 18 18 16
14 17 10 24 25 19 20 17 19 20 15 11 15 23 23 14 21 25 23 26 27 30 44 30 31 34 30 34 32 31 32 33 32 35 36 35 33 31 34 34 27 34 37 37 34 30 28 26 31 32 33 32 29 29 29 28 29 29 28 31 32 30 26 31 30 32 30 28 27 27 26 20 19 21 21 22 21 22 20 18 20 20 19 17 16 15
16 26 24 22 17 13 22 22 20 24 20 19 20 18 15 20 20 21 26 19 24 29 37 22 29 28 27 37 19 32 39 37 37 35 35 32 32 36 35 31 31 29 34 33 32 30 30 29 31 29 32 31 30 28 32 31 30 31 30 31 31 31 33 31 31 32 31 30 28 28 27 25 23 22 21 22 24 19 19 19 19 17 17 17 16 16
16 27 19 13 14 18 18 19 18 17 21 23 20 9 15 14 14 19 20 24 23 27 32 27 26 34 31 33 23 21 24 28 36 37 36 36 37 38 34 32 29 29 32 35 33 32 33 31 32 30 30 31 32 30 31 35 34 29 30 29 31 36 37 35 32 32 33 32 30 30 28 27 24 20 22 22 19 17 19 19 17 17 18 15 15 16
9 13 22 10 12 17 19 14 19 12 13 24 21 20 15 17 17 12 26 22 26 29 25 32 25 33 26 29 23 24 23 27 28 32 34 34 33 34 33 34 33 33 32 32 32 31 32 32 31 31 32 33 32 31 29 31 30 30 32 29 29 31 34 31 33 33 33 33 30 26 26 25 22 22 24 21 18 19 19 19 18 18 16 17 15 15
14 11 21 18 19 20 20 9 15 14 12 13 17 20 19 22 12 20 20 23 20 24 24 30 37 35 19 23 24 25 27 32 33 30 31 30 29 32 33 33 30 31 31 31 30 30 32 32 32 32 33 33 31 28 29 29 30 29 28 29 29 31 30 31 36 36 33 31 32 30 27 25 24 25 22 19 17 19 19 17 16 17 15 12 15 15
15 14 22 28 26 14 21 17 17 20 19 19 16 18 18 18 17 19 27 20 26 27 29 26 41 39 29 20 23 25 25 28 32 29 31 31 33 34 36 33 29 28 29 29 28 27 32 32 31 31 34 31 31 29 27 28 27 28 29 29 30 31 31 33 31 32 34 32 29 30 28 25 24 25 19 17 16 18 16 14 16 15 13 14 14 15
12 15 21 26 23 26 27 23 20 23 26 25 21 20 18 19 21 22 29 19 18 27 22 24 30 47 18 17 20 27 27 29 32 32 32 31 32 35 44 39 32 32 27 30 27 29 31 30 31 33 34 33 32 31 33 29 28 30 29 30 30 31 29 29 33 32 32 32 30 28 27 27 25 20 20 19 18 17 16 14 14 14 17 15 13 13
13 19 22 25 23 25 28 19 19 15 17 20 20 19 19 26 21 22 27 22 26 23 24 20 30 51 25 14 15 19 28 34 30 26 35 33 31 28 38 42 31 27 28 29 28 28 31 31 29 31 33 33 34 34 35 32 31 30 29 31 31 30 29 27 28 28 26 26 27 28 28 27 21 19 17 19 18 17 15 14 12 13 15 14 12 14
23 9 15 28 35 21 11 11 16 14 19 13 18 19 20 22 22 23 24 21 30 29 26 24 41 45 20 18 21 32 27 28 30 31 31 31 33 28 31 42 33 28 29 30 30 29 29 30 29 32 33 33 30 28 30 27 25 24 24 29 32 30 31 34 28 29 27 25 26 27 30 25 22 18 18 18 17 17 16 14 12 13 15 13 13 13
16 19 17 21 27 30 36 34 31 20 11 16 19 21 21 21 21 20 23 26 35 24 22 31 46 44 18 15 22 26 27 27 27 30 32 31 33 32 26 38 38 29 30 30 29 26 29 31 30 31 30 29 28 28 26 25 23 21 22 31 31 33 32 29 28 29 28 27 27 27 29 27 23 20 19 19 17 18 18 16 13 14 13 14 13 13
14 17 17 19 19 24 28 29 26 21 18 21 18 17 20 18 22 23 20 21 36 26 28 33 36 39 38 31 23 24 25 28 31 31 32 30 33 36 31 34 40 27 28 32 27 28 27 28 31 31 30 28 28 26 26 24 24 24 24 23 27 29 31 28 27 27 26 26 27 27 28 27 23 22 20 19 18 18 17 16 15 14 13 12 13 13
11 17 17 19 22 25 27 26 31 24 24 26 23 28 22 19 17 17 21 32 11 17 34 35 17 29 42 28 21 23 25 24 28 31 30 34 34 33 31 30 28 32 26 26 26 29 31 31 31 31 30 28 28 27 25 22 25 23 24 23 23 26 26 30 31 29 29 26 27 26 28 26 24 22 21 18 18 19 17 17 19 17 15 14 14 14
16 18 15 17 22 24 25 28 29 28 24 23 22 24 24 24 18 21 29 29 19 23 39 29 21 33 40 34 32 28 25 25 30 31 32 33 33 29 27 26 28 28 27 27 29 32 32 31 29 31 30 29 26 25 24 23 21 19 20 21 23 25 32 31 29 29 26 26 29 25 24 24 23 21 20 20 19 19 17 16 14 12 11 11 11 11
15 16 18 22 30 28 26 23 22 23 23 20 20 20 20 22 25 23 29 24 22 26 29 32 30 37 41 41 37 36 29 24 26 24 28 31 32 29 30 29 29 28 28 26 30 31 32 30 29 31 29 26 26 27 25 23 23 21 22 23 23 23 29 32 30 27 25 26 25 23 24 24 21 21 20 19 19 18 17 17 15 14 11 11 12 13
12 25 17 25 24 30 25 18 21 22 19 23 24 20 20 21 24 23 22 26 17 26 30 27 28 37 42 30 27 27 22 19 21 25 26 30 25 25 27 27 29 29 30 26 27 28 27 28 29 29 28 27 27 27 27 25 24 23 22 23 23 26 33 31 30 27 25 27 24 23 23 23 22 23 21 18 18 17 18 18 16 13 12 11 11 11
15 18 19 21 22 32 26 23 29 24 20 16 23 35 39 32 28 28 30 21 12 22 20 19 22 32 32 18 15 17 18 16 18 17 18 17 18 17 15 28 28 28 30 29 26 25 27 29 29 29 29 29 28 28 27 26 25 24 23 23 27 36 36 35 34 28 25 26 26 24 24 22 23 21 20 19 19 18 17 16 14 14 12 12 11 10
14 20 24 17 23 27 29 25 29 29 21 24 47 41 32 28 22 26 20 20 26 24 21 24 25 25 18 14 18 19 14 12 11 15 21 22 21 17 15 29 27 26 25 25 26 27 28 29 29 29 29 28 31 29 27 27 25 25 24 28 33 32 36 35 33 29 25 25 25 24 23 22 23 22 23 22 21 19 16 17 16 15 13 13 11 10
16 17 23 14 18 28 30 30 30 26 46 37 34 34 35 36 28 25 30 31 33 27 25 23 26 23 18 16 14 17 10 14 12 14 16 17 19 20 25 28 26 25 26 28 29 29 31 30 30 31 29 29 29 30 26 28 30 26 27 33 34 33 34 35 33 30 27 26 28 27 24 24 23 23 21 19 18 18 18 18 18 14 12 12 12 13
22 19 18 16 18 26 28 27 27 46 23 22 32 31 36 33 25 24 22 30 38 43 42 38 37 27 18 15 11 10 12 14 15 19 22 24 21 21 26 31 31 25 25 26 26 27 27 27 28 27 28 28 29 25 24 21 20 22 31 33 33 34 35 33 32 29 28 29 29 25 25 23 21 20 20 21 20 18 17 17 15 14 13 13 14 14
18 21 18 19 18 21 22 32 38 28 16 18 36 33 37 32 30 27 24 31 41 40 40 37 31 30 26 22 16 15 17 17 16 18 24 25 22 26 23 27 29 27 26 25 25 24 24 24 25 27 25 24 22 21 22 22 20 29 32 34 32 32 33 33 31 29 29 29 28 26 26 24 22 21 19 20 19 18 17 16 16 16 13 12 11 9
20 15 15 18 14 25 22 18 19 21 20 37 51 60 59 54 48 41 29 36 39 42 39 36 34 35 33 29 22 16 15 25 25 24 25 27 28 27 21 25 26 28 27 28 27 25 23 23 26 25 23 20 21 23 21 21 34 32 33 31 34 32 32 32 31 30 29 29 32 29 26 25 22 21 20 20 19 18 17 17 15 12 12 13 12 13
19 20 18 16 29 19 21 24 31 37 50 45 45 45 46 40 37 30 16 44 46 45 41 34 32 31 31 30 28 24 17 27 25 26 30 31 27 25 28 27 25 26 30 32 29 26 22 19 21 22 26 23 22 22 24 32 33 33 32 31 32 32 32 33 31 30 30 30 30 29 28 24 22 22 21 20 20 18 16 14 12 13 13 16 15 13
25 17 11 13 22 28 31 26 31 29 25 27 40 44 44 45 37 34 18 38 46 42 35 32 33 30 28 27 26 23 25 24 19 23 27 28 28 26 26 16 22 24 28 27 28 27 23 23 22 21 22 25 23 28 32 33 31 32 30 30 30 30 32 33 32 31 31 31 29 29 23 22 20 20 21 20 18 18 17 16 16 13 12 12 12 15
28 23 21 28 28 28 24 27 20 26 39 37 40 42 43 41 40 29 40 47 40 39 36 31 30 30 29 28 23 32 28 23 23 25 27 27 27 21 26 25 24 21 20 21 22 25 24 24 22 18 20 26 34 34 31 30 31 28 30 31 31 31 32 32 33 28 28 29 28 26 25 23 20 18 20 20 17 17 18 17 16 14 13 11 13 18
32 26 23 27 23 23 22 23 14 11 27 36 42 42 38 46 32 49 46 31 34 31 31 28 31 31 28 28 28 28 21 18 17 19 25 26 28 29 26 26 25 23 24 21 17 17 25 23 24 27 31 32 32 32 32 30 29 28 28 29 29 27 29 27 28 27 26 29 28 26 28 21 21 20 17 20 22 21 18 17 17 17 17 22 23 18
28 19 18 21 25 28 25 24 23 10 19 38 43 39 37 41 63 38 32 26 28 28 28 30 31 31 26 26 23 20 18 20 23 29 28 29 34 30 28 24 24 26 24 19 19 19 20 21 22 23 25 25 29 28 28 26 26 26 25 24 25 27 26 26 26 25 24 27 27 26 24 23 18 19 19 18 20 20 19 16 20 20 17 14 14 15
30 26 27 23 28 19 27 23 23 32 34 38 39 30 37 45 30 23 28 22 25 26 30 32 32 32 29 28 25 24 24 27 28 25 28 31 33 32 30 28 25 23 23 23 20 16 24 24 23 24 25 26 25 25 26 25 24 25 25 26 22 26 25 25 24 24 24 26 28 28 25 23 21 19 19 18 18 18 17 15 16 14 14 14 13 14
24 20 20 15 22 21 29 39 31 22 24 30 34 37 39 31 27 27 27 28 31 33 31 28 32 31 29 27 27 27 29 30 32 27 29 33 30 30 31 30 28 25 24 23 21 21 23 22 21 21 19 17 19 21 22 24 23 21 21 23 24 20 21 23 20 22 23 23 25 23 25 22 23 21 17 18 18 17 18 16 14 13 13 14 15 15
24 23 21 18 18 20 21 21 21 19 21 26 25 26 29 30 29 30 30 29 29 29 27 29 32 32 30 27 26 31 32 29 23 24 27 28 30 28 28 27 27 25 23 23 23 23 23 23 24 25 23 20 20 20 19 19 21 18 16 19 21 20 21 23 22 22 21 20 23 24 22 24 21 20 20 17 18 17 17 15 15 15 11 13 14 14
19 26 21 11 19 13 10 23 22 20 24 30 28 25 27 30 31 31 29 29 28 26 28 29 27 29 31 30 29 29 28 22 25 27 27 29 29 28 27 30 30 27 25 26 24 22 22 23 26 25 25 22 20 24 19 20 20 21 16 16 18 21 21 23 22 21 22 20 20 21 22 23 20 18 18 17 15 15 16 17 15 15 12 11 13 15
23 30 26 23 20 16 19 26 30 24 19 31 29 31 30 31 33 31 29 29 26 26 27 30 27 28 26 30 30 26 26 26 26 26 25 28 29 28 27 29 27 25 25 26 20 21 25 23 25 26 25 24 21 21 20 20 20 20 19 19 18 20 23 24 25 23 22 23 22 21 24 23 19 18 18 15 15 14 12 10 13 14 13 12 12 13
23 29 19 23 19 21 17 23 26 21 16 26 29 30 32 32 33 32 28 26 27 25 24 25 26 28 28 33 30 27 25 29 29 27 27 26 25 26 26 27 25 26 24 25 22 20 25 28 26 29 28 24 21 21 21 21 21 23 21 21 23 22 23 24 24 25 23 22 22 22 23 24 22 24 21 19 19 18 16 15 13 14 12 10 9 13
16 19 18 23 21 21 13 24 33 19 14 29 31 27 27 28 28 30 29 27 27 27 26 25 27 27 29 29 28 28 27 29 27 26 28 27 29 27 26 27 25 24 24 26 24 24 27 25 29 24 26 22 20 24 24 21 18 18 18 20 23 24 24 24 21 23 22 22 25 22 20 21 20 21 23 22 19 20 18 15 12 14 14 12 9 8
19 26 22 19 19 24 27 30 27 31 31 30 26 26 27 26 27 28 28 29 28 28 27 26 26 25 25 26 26 26 27 26 26 26 27 27 26 25 25 24 24 26 28 23 24 26 27 26 26 25 25 23 21 23 23 22 21 21 20 21 21 23 27 25 25 23 21 20 22 21 22 20 19 17 19 22 21 24 23 19 21 17 14 12 12 19
18 17 20 21 19 19 22 20 17 14 15 18 19 21 23 23 24 25 27 28 28 28 24 25 25 24 27 27 27 29 27 27 26 26 27 28 27 25 25 26 26 26 26 25 28 28 27 26 26 26 25 23 22 23 24 24 21 21 22 21 21 25 27 28 26 22 20 20 19 19 20 19 18 16 17 16 18 20 22 21 23 21 21 16 18 22
Wind_Speed
3 6 5 7 8 9 8 8 9 11 9 7 5 6 9 9 11 8 12 10 10 11 9 12 13 11 14 16 15 13 10 8 6 6 6 5 5 5 4 4 5 4 5 6 6 6 8 10 10 10 10 12 11 9 12 14 15 16 16 15 16 13 12 11 12 12 12 12 11 10 11 11 10 10 10 9 8 9 9 9 9 10 9 9 8 7
4 6 8 10 11 11 11 9 4 2 1 4 6 6 9 9 11 8 12 12 10 8 7 8 11 9 9 11 17 12 8 8 7 7 6 4 6 6 6 4 4 4 2 2 2 6 4 7 6 4 6 10 12 11 13 15 16 16 16 16 15 12 12 13 13 13 11 11 12 12 11 10 11 11 10 10 9 9 8 10 10 9 9 10 9 7
6 10 7 6 7 7 7 6 5 3 4 4 5 5 7 9 8 14 12 7 3 7 7 8 10 7 8 5 4 3 6 7 9 10 8 7 5 4 4 4 5 2 1 2 4 3 3 9 12 9 7 7 13 16 15 15 14 15 15 15 14 14 14 13 13 12 11 9 9 10 10 11 8 6 6 6 6 8 9 10 11 10 10 10 8 7
6 5 7 7 4 4 5 6 5 5 7 7 6 6 8 6 7 9 11 8 7 5 8 9 11 7 5 5 3 5 3 4 4 4 6 5 6 6 6 5 4 4 4 4 4 5 5 8 12 12 8 10 5 6 14 15 15 13 14 14 15 15 14 12 13 13 11 10 8 7 8 9 9 6 4 5 6 7 10 11 10 10 10 10 8 8
10 12 4 4 3 5 8 6 3 4 8 8 11 10 9 9 9 8 10 11 11 12 6 7 9 9 1 5 6 2 4 5 4 6 7 6 5 5 4 1 3 4 4 4 4 2 4 6 8 12 11 7 10 11 10 13 14 11 14 15 17 15 15 13 13 12 10 9 8 7 6 5 6 3 6 6 7 9 10 9 10 11 10 10 9 8
12 11 4 5 9 5 3 6 7 8 9 8 10 12 12 10 11 10 9 9 6 10 5 2 4 6 4 4 6 7 1 3 5 6 8 10 12 7 5 5 5 4 4 6 6 5 7 8 9 9 9 8 9 11 6 11 13 14 14 15 15 13 13 12 12 12 11 11 11 11 11 11 11 10 10 11 14 12 13 11 8 9 9 9 9 9
7 7 12 6 9 9 5 6 6 5 8 6 5 9 9 8 8 9 9 6 4 7 3 4 1 8 6 7 6 5 4 7 4 6 9 9 10 9 7 6 5 6 4 4 3 4 6 8 8 8 12 12 11 11 13 9 13 14 15 16 16 14 12 11 11 11 11 10 11 12 13 12 13 13 11 10 6 8 6 7 9 8 7 9 10 8
1 4 9 8 3 5 4 5 3 5 7 7 3 4 5 8 9 9 10 10 8 3 6 2 2 4 9 12 5 7 6 7 7 7 8 8 9 10 8 7 5 5 6 6 7 6 7 10 11 10 11 13 15 13 13 12 12 13 13 12 12 11 10 9 10 11 11 11 11 12 11 10 10 10 9 6 5 5 6 8 9 8 8 8 9 9
3 8 8 9 3 4 7 6 4 3 4 3 1 2 4 7 9 8 7 5 2 3 8 5 0 3 5 11 1 1 7 9 10 11 8 7 9 10 10 11 10 8 8 8 8 8 8 10 11 11 10 13 16 15 13 14 13 14 11 13 13 14 14 12 15 14 13 12 12 11 10 9 8 8 6 4 5 6 6 8 7 8 8 8 8 8
3 10 12 7 6 8 10 6 9 10 8 1 4 6 3 3 4 5 5 5 0 1 11 12 6 4 10 12 8 1 5 11 10 11 10 8 10 10 10 11 13 11 6 8 9 10 10 10 12 13 12 13 13 12 15 14 12 14 11 14 15 14 13 13 15 15 14 13 11 10 10 11 8 6 5 6 6 7 7 9 9 8 8 8 8 8
12 7 8 4 7 9 5 4 7 10 9 3 3 1 4 6 3 2 3 2 3 4 15 16 9 8 8 10 5 6 8 9 9 9 10 8 7 8 8 10 11 11 8 6 7 9 11 10 13 13 13 9 4 6 15 16 17 13 13 15 16 15 12 11 12 14 15 13 12 11 10 11 10 8 8 7 6 7 8 9 9 9 8 8 9 8
9 8 2 4 10 6 1 4 1 3 4 4 2 3 5 4 3 2 1 2 3 8 17 7 6 9 8 10 7 7 7 10 12 13 14 14 12 10 9 9 10 10 9 8 7 7 10 8 9 11 12 10 9 2 4 11 14 13 13 15 16 12 12 12 10 9 9 10 12 12 12 11 10 10 9 10 10 9 10 9 9 7 7 8 8 7
9 2 2 2 2 5 2 1 5 0 3 5 5 3 2 2 2 2 2 3 7 10 4 3 7 4 11 14 17 10 11 12 12 12 13 15 16 14 12 12 11 11 10 11 9 8 9 11 10 11 13 12 10 11 6 9 9 13 14 16 17 15 12 12 12 11 9 7 8 10 12 11 10 10 10 9 8 8 9 8 9 9 9 8 8 8
7 8 2 1 3 0 5 2 3 2 2 4 5 5 5 3 2 4 3 1 5 8 12 6 5 6 4 11 21 22 19 16 14 12 11 12 14 16 14 10 10 9 10 11 11 10 9 11 11 13 12 12 13 15 14 9 10 10 13 16 18 16 13 12 11 12 11 9 9 6 8 10 10 10 10 8 8 8 7 8 10 10 10 9 9 9
5 7 2 1 1 1 3 6 7 4 5 7 4 9 7 5 3 3 4 6 7 7 3 1 2 5 9 6 13 18 17 15 16 16 14 11 11 12 13 8 7 9 10 11 12 12 12 11 13 13 13 13 13 13 14 15 13 12 10 14 16 15 13 13 13 11 12 10 10 7 8 9 10 10 9 8 7 8 8 8 9 9 8 9 8 9
5 6 9 2 3 3 5 4 3 3 1 2 2 4 4 7 5 5 5 3 3 3 6 3 6 5 8 4 6 6 6 6 7 10 13 17 17 15 12 9 6 7 9 10 11 13 15 9 12 13 13 14 14 15 13 14 15 12 10 11 15 17 16 14 14 13 14 12 11 9 9 9 11 10 8 7 6 8 8 8 8 9 8 7 7 7
3 5 4 10 16 3 10 2 3 5 1 1 4 3 10 6 6 1 3 3 2 3 12 3 6 8 7 12 17 17 12 11 9 10 11 12 15 16 16 16 9 7 9 9 10 12 15 7 10 12 13 13 13 13 13 14 15 15 11 10 13 15 15 15 14 14 12 11 11 11 11 11 11 12 12 10 9 9 7 7 7 8 7 7 8 8
4 11 15 8 8 3 2 2 7 9 5 4 1 8 1 3 2 4 3 1 2 7 6 7 11 9 4 8 6 14 17 17 14 13 12 12 11 11 12 15 10 8 11 12 13 13 14 10 10 11 12 14 15 15 15 16 14 15 12 8 12 13 15 12 13 13 12 12 12 12 12 12 13 13 11 9 9 7 7 6 7 6 7 8 8 7
1 9 2 6 8 5 7 8 5 8 7 9 9 3 2 1 2 2 0 4 2 5 5 5 11 13 11 11 5 6 9 12 11 11 8 5 4 4 4 4 3 5 7 9 9 10 9 7 8 10 11 13 14 16 16 16 16 14 13 11 14 16 17 17 14 13 13 13 12 12 14 14 12 10 10 9 8 7 8 8 7 7 8 8 7 7
1 4 6 5 3 5 9 3 5 3 4 10 9 5 3 3 4 3 7 3 5 5 3 5 6 10 9 9 11 15 13 10 4 4 4 3 3 3 3 5 4 5 7 7 8 8 8 9 9 11 12 13 14 14 14 16 15 15 16 15 13 12 12 14 14 13 14 13 12 11 10 11 9 9 10 9 9 9 9 8 8 8 8 8 7 7
3 5 9 2 3 8 7 4 6 6 5 4 5 8 5 5 3 4 2 5 5 5 6 8 10 12 6 9 11 15 16 13 8 5 3 4 4 4 4 6 6 5 8 9 8 6 8 8 9 9 11 14 14 14 15 15 15 15 15 17 18 15 11 13 13 13 12 12 12 12 13 13 10 9 8 9 9 9 8 8 8 8 8 5 6 6
2 3 7 11 9 4 10 8 11 10 9 7 6 6 5 4 5 5 10 4 6 8 7 3 15 13 7 7 11 15 5 7 5 5 4 5 6 5 5 5 7 7 8 10 8 7 9 8 9 9 10 12 14 14 15 15 15 14 15 15 15 13 13 15 13 12 11 11 12 14 14 12 9 9 7 8 8 9 9 8 8 8 6 7 7 6
4 4 7 9 9 11 17 16 10 12 12 11 7 6 4 3 4 5 9 4 5 9 10 8 6 21 3 9 8 6 8 7 8 5 5 6 8 8 7 7 9 8 9 10 9 7 9 9 9 11 12 12 15 15 16 15 14 14 14 14 14 14 14 13 13 12 10 10 11 13 10 8 7 7 8 9 8 9 9 8 8 7 8 7 6 6
3 4 5 11 11 12 17 4 3 3 6 6 9 9 5 10 10 9 7 1 4 2 5 4 8 16 5 9 8 7 6 2 4 5 7 9 8 9 10 11 11 11 8 9 9 8 9 9 9 10 12 13 13 14 15 13 12 13 13 13 13 15 14 12 10 10 10 8 6 4 4 7 6 5 7 9 8 9 8 8 7 7 8 8 7 8
5 2 3 11 11 3 2 2 2 4 3 4 5 7 12 11 12 11 5 2 10 11 9 3 13 16 4 9 10 8 6 9 12 10 7 12 14 12 12 12 11 11 10 9 9 10 10 8 10 11 13 14 13 13 13 14 12 12 12 8 4 3 5 10 11 12 10 10 10 7 5 6 5 7 8 9 8 9 8 8 8 8 9 8 8 8
6 5 2 9 12 14 14 14 12 7 4 4 3 7 11 13 13 7 9 9 14 6 14 11 16 15 5 4 5 8 11 13 13 14 15 14 16 15 13 13 12 10 11 10 9 9 10 9 10 11 13 13 13 13 13 13 13 10 11 14 16 17 13 9 9 7 7 4 3 10 10 8 6 8 9 9 8 9 8 8 8 9 8 9 8 7
3 3 6 7 8 12 14 14 15 7 6 8 10 8 11 10 15 13 9 7 15 10 10 17 19 19 8 8 8 9 11 13 13 14 13 14 15 17 16 15 13 12 11 12 10 9 7 7 10 12 13 13 13 13 13 13 11 11 12 12 12 15 18 13 4 7 8 7 3 1 7 11 10 8 9 8 7 7 7 7 7 8 8 8 8 8
2 6 8 10 14 14 17 18 20 14 14 15 12 16 14 9 9 11 11 14 2 4 15 11 10 14 25 13 12 14 13 14 15 16 17 18 19 18 18 16 16 14 12 11 9 8 8 10 11 12 13 13 13 14 13 13 14 14 14 12 10 10 10 14 18 15 16 14 13 13 11 10 9 9 8 7 7 7 7 7 6 7 7 7 8 8
3 5 7 2 15 14 16 19 19 15 12 11 12 12 15 16 10 10 14 17 3 5 15 4 7 8 16 16 15 12 10 12 12 14 12 13 14 15 16 17 17 16 16 15 11 9 9 11 13 14 14 14 14 15 15 13 12 11 11 12 12 13 14 15 17 17 15 14 16 12 7 9 8 8 8 8 8 8 7 7 6 6 6 7 7 7
1 6 6 7 15 18 18 14 12 11 10 7 6 8 10 12 15 12 10 12 10 13 16 16 16 19 19 20 18 16 13 12 12 12 12 13 14 15 17 18 18 18 17 13 11 10 11 13 14 16 15 14 15 15 14 14 13 12 13 11 12 12 12 13 15 16 14 12 10 9 7 9 8 8 9 9 9 8 8 7 7 6 7 7 7 6
3 8 9 11 8 15 17 12 14 15 13 9 1 8 14 15 13 7 9 10 6 10 13 15 16 17 16 11 12 13 11 10 9 11 14 15 16 19 20 19 17 14 10 10 11 12 13 15 16 16 16 15 15 16 15 15 14 14 13 13 13 14 13 13 14 13 13 13 11 10 9 9 9 10 10 9 8 8 8 8 7 7 7 7 6 7
1 6 9 5 7 12 14 15 20 16 14 7 11 25 27 23 18 11 8 10 6 11 10 8 8 9 12 7 7 8 10 8 6 9 8 7 8 8 2 7 9 10 10 12 12 13 14 16 16 16 16 16 16 16 16 15 15 14 13 13 13 12 13 13 13 13 10 11 10 10 11 10 11 11 10 10 9 9 8 7 7 7 7 6 6 4
1 5 9 7 8 9 18 16 20 19 12 5 26 23 21 17 12 8 5 8 15 6 6 6 7 8 9 8 10 10 7 6 6 10 12 14 13 10 5 5 9 11 14 15 15 15 16 16 17 17 16 16 16 17 17 16 15 15 14 14 12 12 13 13 12 11 11 11 13 10 8 10 11 11 11 10 9 8 8 8 8 8 7 8 5 4
5 7 7 4 4 11 19 20 19 8 22 13 11 20 20 19 11 13 14 13 21 13 7 6 8 9 8 8 8 7 4 1 4 6 4 8 10 9 4 3 2 7 13 14 15 16 15 15 14 16 17 17 18 19 17 18 18 15 14 14 13 14 14 13 11 11 12 13 13 9 7 7 9 10 10 10 9 9 8 9 9 8 7 6 6 6
10 10 6 1 4 11 16 15 9 22 5 5 18 18 22 21 13 16 11 12 24 25 24 23 22 18 12 8 6 5 3 2 5 4 7 9 9 8 6 3 8 4 10 12 15 15 16 17 17 17 18 18 18 15 15 12 12 13 12 12 14 13 13 12 12 10 11 12 10 9 9 8 8 10 10 10 10 9 9 9 8 7 7 7 8 8
9 10 6 4 5 5 6 12 11 9 3 11 22 18 18 16 17 18 5 16 24 22 21 21 19 18 17 15 11 7 6 6 3 1 11 14 12 8 9 5 4 6 2 13 14 14 15 15 16 17 16 14 14 12 13 13 12 14 13 13 14 12 12 12 12 11 10 10 10 11 10 9 8 10 10 10 10 10 10 9 9 9 6 5 5 4
10 6 4 5 3 7 7 8 4 6 4 14 19 27 23 21 22 17 10 12 20 22 23 20 21 22 20 18 14 10 5 3 6 12 16 17 16 13 6 6 2 4 5 6 12 12 14 15 17 16 14 13 13 14 13 13 14 13 13 13 12 13 12 12 12 11 11 11 11 11 11 10 8 9 11 11 11 10 10 9 8 6 6 7 7 8
10 7 7 4 7 5 9 7 5 8 16 19 27 27 29 25 24 14 4 10 19 23 22 20 19 20 20 19 18 16 5 11 14 11 16 19 18 16 10 3 2 2 1 4 7 12 11 12 13 14 16 15 14 14 13 13 14 14 14 13 12 12 12 12 13 12 12 12 12 12 11 11 10 10 11 12 12 10 9 7 6 8 6 8 8 7
8 3 6 4 7 11 13 9 7 8 4 11 22 27 29 26 24 20 7 14 18 22 20 19 19 20 18 17 16 13 13 10 8 9 14 17 17 14 7 6 8 6 2 5 14 12 11 11 14 13 14 16 15 11 13 15 16 15 14 14 13 13 13 13 12 12 13 13 10 8 10 11 10 10 11 12 11 10 10 9 9 7 6 6 6 8
15 11 10 11 12 9 10 10 7 5 6 18 24 25 27 24 22 13 9 16 19 22 19 17 13 12 13 15 12 11 13 11 10 10 14 15 12 10 11 11 10 8 8 7 8 9 11 11 12 11 13 15 15 13 13 13 14 15 15 14 13 14 14 14 14 12 10 8 8 9 10 10 10 9 11 12 10 9 9 7 7 7 6 5 4 8
13 10 10 12 10 9 12 8 3 0 3 19 23 27 23 27 15 14 22 13 17 16 16 16 17 20 17 17 14 11 9 7 9 11 12 11 11 11 11 12 11 11 10 8 8 10 11 10 11 11 9 7 6 10 12 13 13 13 13 13 13 14 14 12 9 8 8 8 7 7 8 7 8 10 9 10 11 9 8 8 8 7 6 6 7 7
10 4 4 5 11 9 8 9 6 1 3 20 24 25 18 14 19 23 11 12 14 15 13 15 16 18 17 14 10 7 7 7 7 12 12 12 13 12 13 13 14 16 14 11 9 8 11 11 12 12 11 10 9 4 7 12 13 13 13 13 14 13 9 8 8 8 8 8 7 6 6 7 5 5 7 9 9 9 9 7 8 8 8 6 8 8
10 8 10 8 6 3 5 6 6 11 6 21 24 16 16 16 12 10 13 10 14 13 18 18 16 16 16 13 13 11 12 16 16 13 12 14 14 14 14 14 14 15 16 14 12 10 8 10 10 10 7 5 10 10 6 3 13 12 8 8 7 6 7 7 7 8 8 8 8 7 6 6 7 8 9 10 10 9 9 8 8 7 7 8 7 9
10 4 4 2 5 7 8 10 8 6 10 15 16 13 16 12 11 13 12 14 14 17 18 14 17 16 16 14 13 13 15 16 18 16 15 16 15 16 16 15 15 14 15 14 11 12 13 12 11 11 11 8 7 11 10 6 4 9 12 4 2 5 7 7 7 8 7 6 5 6 6 6 7 7 8 9 9 8 9 9 8 7 7 8 8 8
10 6 5 6 6 5 4 7 9 10 6 8 10 13 14 16 15 15 12 14 15 14 12 13 18 18 18 17 16 19 19 18 14 14 14 15 16 16 15 14 13 12 11 10 7 6 12 11 12 12 11 8 8 9 8 7 7 9 10 4 6 7 6 6 7 7 8 5 4 4 5 4 6 7 9 7 5 7 8 9 9 8 5 6 7 8
3 5 7 1 5 7 1 4 9 9 9 15 13 12 14 17 17 15 15 13 16 14 16 15 14 16 17 18 16 17 16 14 15 17 16 15 16 15 15 15 14 13 12 11 9 7 7 11 12 14 13 11 6 10 9 4 8 13 8 8 9 8 8 8 8 8 8 8 7 7 6 6 8 10 8 4 3 5 8 10 8 8 6 6 6 7
3 5 4 5 8 6 5 10 13 15 8 15 16 18 19 17 16 15 14 13 13 15 16 19 14 14 14 16 19 16 16 16 16 15 15 15 16 17 16 14 13 14 13 12 9 7 8 7 11 12 12 10 6 9 10 8 8 10 10 12 10 10 9 8 8 7 6 7 7 6 7 8 9 9 7 2 3 4 4 4 7 8 8 7 7 6
6 4 2 7 6 5 6 9 11 12 2 8 10 13 16 17 18 16 14 13 13 13 12 13 15 18 17 19 18 16 16 18 19 17 15 15 15 14 15 15 15 16 14 12 11 11 12 12 11 10 10 8 5 5 6 5 6 5 10 12 12 13 12 11 10 10 9 7 6 6 8 11 16 15 9 7 7 7 6 6 5 6 5 4 4 7
3 3 4 5 3 5 7 5 11 9 3 10 14 14 13 14 14 16 16 15 14 15 16 15 16 16 16 16 16 17 17 18 17 16 17 16 17 16 15 15 15 15 14 14 13 13 12 11 12 13 12 9 8 7 8 10 9 9 10 9 9 11 13 13 13 12 11 9 9 9 10 10 9 10 11 12 12 11 10 8 6 5 5 5 3 1
4 6 3 3 4 7 10 11 12 11 10 14 14 13 14 15 14 14 15 16 15 14 14 15 16 15 15 16 16 16 16 15 16 16 17 15 16 16 16 15 15 15 14 11 12 15 16 14 14 15 14 11 8 8 9 9 8 6 8 11 11 13 16 15 14 14 11 10 10 8 9 8 8 8 9 9 12 15 13 14 15 10 6 5 9 5
3 3 4 6 5 7 9 10 6 3 4 8 11 9 11 13 13 14 14 14 15 14 13 13 13 13 15 16 16 18 17 16 16 15 16 16 15 14 15 15 15 14 13 14 15 15 15 14 15 15 13 9 8 8 8 9 7 6 6 7 11 15 16 17 14 12 11 10 10 9 9 8 8 7 8 8 9 9 11 9 12 16 16 13 11 13
Wind_Direction
136 193 208 213 220 223 225 213 214 235 248 269 274 274 272 275 280 275 281 291 310 303 260 250 256 253 257 247 228 219 225 217 232 254 246 158 205 250 265 241 229 204 214 239 254 246 190 197 195 194 183 178 182 191 181 174 174 174 172 169 177 177 167 165 165 171 171 172 172 173 178 184 185 189 190 191 192 191 193 189 186 185 190 193 189 184
175 228 231 217 217 217 223 225 241 308 239 259 275 289 287 281 281 288 283 299 299 287 282 274 281 287 302 271 220 209 213 235 229 237 251 231 175 205 202 238 235 221 262 264 240 270 236 195 202 222 219 188 175 186 184 181 178 176 171 173 174 170 170 175 175 174 176 180 179 177 179 173 181 187 189 190 191 189 187 189 187 186 190 191 189 179
237 233 237 228 226 229 231 222 205 210 285 296 274 280 287 284 302 289 276 285 285 312 287 306 308 295 289 313 316 231 217 229 223 216 225 231 220 189 204 209 218 233 206 213 232 265 252 191 190 187 187 209 194 183 187 186 180 175 173 174 173 176 174 180 177 172 178 179 173 172 170 173 182 195 192 180 181 177 183 191 187 186 189 189 185 175
279 261 251 237 226 213 241 238 246 280 275 269 280 279 268 289 297 302 293 310 307 310 301 307 305 284 272 293 286 285 224 253 258 232 253 257 244 210 212 211 233 198 169 195 234 227 222 205 190 188 190 183 156 258 193 184 180 178 177 174 176 179 178 178 180 178 173 168 161 167 167 164 170 178 161 157 168 179 184 190 186 186 187 185 181 176
281 296 264 230 238 221 246 252 169 227 251 242 246 258 266 272 262 257 291 307 312 298 293 305 304 299 261 304 305 263 296 296 301 322 306 280 245 240 174 184 200 222 167 201 245 254 221 216 204 188 191 179 161 177 257 192 181 179 181 178 179 180 180 177 178 171 157 148 141 139 133 135 125 111 156 155 182 188 189 181 186 187 184 181 178 177
295 294 273 45 358 318 269 269 236 210 246 247 240 235 244 252 274 276 288 311 326 307 315 304 333 284 290 286 265 284 249 264 291 296 285 283 290 275 242 197 194 202 186 182 208 195 194 213 207 185 169 172 184 180 187 278 195 180 181 179 180 181 179 174 174 165 158 160 160 157 159 168 177 180 182 187 189 189 189 186 174 180 180 177 178 179
248 318 311 272 223 244 245 250 250 209 240 237 234 209 222 216 253 280 296 295 278 265 292 45 127 287 303 293 284 292 289 272 271 260 261 272 280 284 262 240 195 183 188 229 223 175 177 209 220 186 174 179 188 187 172 220 256 196 181 178 179 179 177 168 167 165 160 159 166 171 176 181 185 186 195 196 184 179 173 164 180 177 174 178 175 185
312 306 285 305 212 217 233 248 254 220 227 243 206 167 186 222 236 263 277 264 250 265 301 352 174 256 294 282 255 273 285 283 282 261 257 260 264 264 265 262 243 192 186 188 210 199 188 192 206 202 190 183 189 191 180 184 243 223 182 174 175 174 169 157 156 163 168 168 170 173 177 182 188 194 194 184 172 157 153 167 178 172 174 178 181 180
227 280 266 279 242 228 238 221 195 235 216 212 234 162 232 241 249 245 253 250 243 25 283 282 181 294 250 263 254 5 302 284 271 265 255 256 263 264 267 264 257 235 200 197 195 202 197 194 201 207 196 202 198 187 182 177 203 226 183 170 170 171 168 165 163 168 175 173 171 174 173 179 190 188 176 158 151 159 164 166 173 174 172 176 185 184
234 222 253 256 262 263 251 243 199 213 239 201 31 352 313 309 297 288 256 263 266 84 262 245 174 217 269 259 276 250 253 268 261 265 266 249 249 254 259 263 259 254 227 207 200 190 202 194 196 202 202 201 205 187 185 183 188 212 180 170 170 171 171 170 169 171 173 171 165 168 174 174 177 170 169 162 163 166 170 173 172 172 173 177 180 186
255 251 242 259 243 235 253 244 204 206 215 116 112 45 330 317 293 302 289 190 81 220 246 235 182 183 267 264 208 236 239 239 260 271 267 257 250 255 255 253 258 253 235 205 201 186 199 199 192 197 198 186 189 204 192 187 185 201 183 172 173 173 171 169 169 169 170 170 169 170 168 170 174 177 172 170 172 169 174 176 176 174 176 176 181 179
274 272 228 236 219 248 185 283 48 168 137 132 53 87 28 319 354 324 290 53 212 251 253 239 161 175 234 280 251 217 242 247 246 249 256 260 253 244 249 254 260 258 253 234 207 184 193 204 201 188 186 170 164 125 280 204 186 188 182 174 170 171 167 165 161 161 163 163 171 170 164 167 174 179 185 187 184 184 181 175 173 171 170 183 181 181
310 268 228 233 345 170 130 242 296 288 165 111 114 96 158 249 55 321 75 217 210 232 255 96 152 189 222 240 262 232 223 237 240 242 245 251 260 257 243 245 250 254 254 251 233 205 177 188 190 191 188 182 174 186 178 294 241 191 182 175 167 170 171 169 162 162 165 149 157 167 168 166 168 183 192 193 189 191 182 176 170 172 181 177 179 189
286 302 300 232 16 63 117 154 288 5 201 145 139 162 164 205 200 222 231 237 292 274 270 268 159 228 195 245 243 247 238 235 243 246 245 247 250 255 256 245 245 248 248 246 238 228 199 179 182 186 187 187 189 187 176 199 285 241 191 180 171 169 169 164 165 165 165 170 175 164 165 168 166 182 191 194 193 197 189 177 177 179 180 181 185 180
346 344 303 77 327 164 210 207 185 186 174 200 154 161 188 167 170 221 186 216 222 246 290 300 114 220 188 224 225 236 241 239 236 243 252 250 251 258 264 262 247 250 251 248 244 236 225 177 176 179 178 183 185 189 189 175 207 268 220 182 172 162 166 165 166 165 167 172 175 168 190 180 169 178 187 192 195 195 192 185 178 181 178 181 183 181
228 232 269 275 271 188 245 229 155 104 26 269 141 74 78 224 134 201 201 178 228 281 300 205 202 201 201 247 270 282 284 256 236 240 246 250 251 251 258 250 234 246 257 255 246 242 238 182 172 172 174 178 176 184 186 183 181 198 255 204 175 168 168 169 168 171 173 174 174 178 188 197 181 176 179 182 192 200 195 187 181 178 180 180 176 180
288 271 248 328 308 243 252 184 197 136 234 253 124 190 218 165 140 187 315 252 221 331 249 218 293 266 282 287 274 272 269 259 247 240 237 244 246 249 249 256 236 233 244 253 251 244 238 203 172 173 175 177 173 173 182 180 178 183 202 236 192 173 169 170 171 170 172 167 171 183 190 194 194 183 183 186 195 198 197 186 183 179 178 175 181 185
286 283 293 288 295 294 301 218 205 198 157 105 162 235 344 148 126 142 213 320 186 231 258 167 235 251 194 263 240 235 249 254 251 247 236 236 244 247 248 253 261 240 235 236 241 244 241 214 183 181 177 176 172 171 179 184 184 181 170 217 226 174 169 170 169 170 168 170 177 185 193 201 199 189 179 177 188 193 187 193 184 173 177 187 188 184
277 292 277 219 246 288 338 354 292 224 193 209 225 138 149 252 290 258 187 263 247 252 286 258 234 247 223 237 252 227 225 240 240 240 229 216 204 220 261 289 331 303 289 265 246 235 236 223 199 189 180 180 176 173 176 183 185 181 165 186 229 192 174 172 176 175 173 174 177 187 197 199 198 184 170 179 185 181 191 189 186 183 186 188 184 179
269 272 282 214 211 342 323 300 266 305 278 251 256 246 189 150 183 154 193 186 149 249 287 281 175 254 193 231 230 241 231 231 201 192 205 204 207 222 252 282 284 283 275 276 272 262 232 212 202 190 179 179 181 178 179 184 187 180 173 176 217 219 177 170 175 174 171 177 181 189 199 206 200 174 169 180 182 189 192 189 185 186 190 191 181 182
268 179 277 224 354 347 286 173 223 195 234 266 233 248 240 239 207 222 190 195 187 227 219 272 278 255 211 207 222 234 233 222 201 202 219 222 239 233 232 265 277 268 274 275 276 269 258 218 200 195 183 180 181 182 181 185 190 186 176 183 192 200 173 173 178 177 176 174 182 187 197 199 189 172 168 176 185 187 191 192 190 191 192 174 184 179
262 216 255 293 303 246 252 228 223 200 200 208 231 233 216 244 268 244 253 186 219 220 235 197 258 284 238 187 208 233 201 164 189 199 244 266 264 258 261 260 268 272 269 267 268 264 254 240 205 190 184 183 179 183 183 186 189 184 180 180 186 192 181 175 176 179 174 177 183 192 198 195 181 169 165 177 179 184 191 194 193 192 180 183 187 178
205 250 254 266 253 267 275 266 248 240 221 225 218 234 151 251 235 216 248 232 230 233 247 237 298 268 212 180 199 202 177 180 189 198 235 254 263 276 280 276 276 266 259 264 261 243 243 229 212 186 181 186 183 182 185 185 184 180 179 178 183 185 187 180 173 171 169 177 188 200 196 183 175 168 173 179 176 186 192 193 193 184 182 186 185 189
255 264 272 258 261 255 260 313 28 22 230 245 243 233 206 229 222 239 243 310 267 237 235 238 235 258 128 154 156 167 202 261 321 313 283 276 279 283 282 278 272 273 260 253 254 244 235 223 211 191 181 184 185 182 184 184 179 174 176 179 180 187 184 169 156 153 157 173 200 201 167 179 185 166 174 181 180 186 189 188 187 183 184 184 183 188
302 197 235 301 308 277 201 346 328 355 34 229 248 222 219 232 239 245 290 266 266 188 215 201 255 256 160 162 180 164 215 259 260 254 249 272 276 271 270 270 265 258 256 248 243 241 236 217 205 193 185 185 183 182 180 179 173 173 174 164 139 111 148 142 153 157 158 155 159 174 179 198 191 176 182 183 180 184 181 183 180 184 185 180 186 186
252 280 298 301 313 319 324 319 313 302 230 235 232 254 230 220 223 224 227 219 248 168 180 218 249 252 120 154 165 195 207 217 221 239 251 252 253 258 262 265 262 252 248 242 242 241 228 212 199 191 187 187 182 175 175 173 171 146 107 101 97 89 59 47 84 61 43 12 196 169 167 193 199 188 182 179 178 179 179 178 180 182 185 179 181 178
268 226 228 244 258 277 275 275 275 254 285 277 273 256 255 225 227 221 237 226 231 233 234 232 235 270 242 175 181 187 200 217 224 228 226 236 245 251 254 254 252 245 241 237 234 232 223 203 201 192 186 184 178 172 168 169 140 130 142 136 133 129 128 124 144 132 143 165 164 315 200 181 191 181 176 176 173 173 177 180 183 177 178 179 172 172
272 291 254 245 253 253 266 273 275 286 274 275 283 283 289 277 245 226 211 241 176 222 249 250 227 249 267 249 223 234 231 230 232 231 218 216 223 227 235 238 239 239 236 232 226 222 207 197 196 190 182 180 175 167 164 153 145 154 150 144 131 125 134 155 170 174 176 178 179 184 191 195 175 166 166 164 170 175 181 182 182 184 174 170 174 175
298 282 315 357 283 273 274 270 278 277 264 261 277 290 307 307 299 239 244 252 199 225 252 262 174 248 268 281 278 258 234 238 247 246 235 221 219 224 226 227 227 227 226 219 216 206 194 189 191 188 182 178 169 166 158 144 143 140 145 146 148 150 162 168 170 179 183 182 179 177 167 159 159 157 157 161 167 174 181 186 187 183 178 178 183 178
304 251 279 309 301 297 294 289 283 281 281 272 286 302 301 317 328 327 298 282 243 236 250 271 281 276 274 279 282 284 282 267 247 242 250 241 230 226 223 223 223 217 207 203 205 194 186 184 188 186 181 172 168 162 153 147 147 148 147 151 156 158 166 170 179 177 174 180 180 161 155 144 150 155 155 163 170 177 181 185 187 184 182 187 184 181
90 296 319 322 307 302 300 306 316 324 335 312 79 326 344 341 334 312 327 338 262 248 257 266 272 276 276 273 276 277 274 265 255 223 211 210 201 200 207 212 208 206 203 200 196 181 178 181 185 184 175 170 163 155 152 152 154 155 154 153 156 162 172 176 178 179 175 171 172 173 164 152 152 155 163 166 167 172 180 186 184 188 186 186 183 177
178 278 313 304 319 304 311 328 323 315 325 305 334 356 355 349 345 340 344 331 304 297 288 277 268 264 272 280 272 280 288 303 318 342 8 350 355 352 277 206 202 205 201 189 178 173 172 178 183 177 172 164 157 155 156 158 158 160 162 157 158 163 168 179 179 174 162 161 170 174 170 167 157 159 163 162 168 172 180 181 184 188 187 181 184 154
252 303 315 324 315 295 304 320 313 316 278 352 6 346 336 332 324 306 242 334 348 306 303 335 287 276 288 307 315 306 319 360 338 348 5 357 351 348 325 277 212 188 174 165 164 168 171 177 176 171 164 159 159 161 164 159 160 167 162 159 159 156 171 179 178 165 158 172 180 175 171 167 163 161 161 165 165 168 170 178 186 188 184 189 169 137
310 322 307 305 318 296 308 319 305 327 29 1 319 337 338 337 338 333 325 317 340 10 358 342 328 306 301 309 292 281 308 343 288 313 349 354 339 337 333 320 39 172 151 152 157 160 167 166 168 165 162 163 165 167 166 164 166 164 159 155 154 165 174 172 174 170 167 174 179 152 158 171 166 161 159 159 162 164 169 178 188 186 181 173 158 179
316 327 304 334 286 310 310 313 345 29 358 319 331 337 343 333 345 345 309 345 3 359 360 3 357 358 355 323 316 297 306 267 262 315 344 353 350 345 331 305 67 354 151 148 154 162 164 166 164 163 165 167 167 164 158 161 152 142 146 152 159 168 167 173 172 171 176 180 164 150 157 171 171 157 153 156 162 165 173 178 178 174 174 174 176 172
330 334 323 330 290 265 327 344 25 342 340 350 334 322 331 338 347 359 341 12 4 360 353 359 354 356 358 348 334 309 282 296 308 284 8 356 358 349 334 328 40 35 234 159 164 164 160 157 158 160 165 158 153 151 151 149 147 147 153 156 159 166 170 169 174 175 181 171 170 164 165 168 173 158 153 156 162 168 173 176 176 172 167 160 140 146
347 304 352 323 359 356 319 310 281 264 262 339 345 353 348 345 338 353 344 348 360 1 356 353 354 357 357 351 338 326 305 299 0 6 359 355 345 338 316 291 56 39 299 174 149 150 153 154 155 155 146 147 149 147 152 148 148 146 144 153 162 165 168 170 173 177 180 178 179 174 167 160 167 166 156 157 165 173 171 169 171 167 166 157 159 153
352 4 315 343 356 345 338 321 319 10 14 353 348 333 338 332 331 338 357 346 5 359 354 352 359 357 356 353 350 339 330 37 18 355 342 339 338 330 318 275 80 45 200 143 128 135 140 141 138 142 142 144 148 151 147 147 145 146 150 155 161 163 168 175 180 179 182 182 183 177 163 160 166 169 161 159 169 170 164 159 162 171 175 167 164 153
352 317 314 18 337 358 5 1 11 21 24 359 336 335 328 330 324 337 317 12 357 357 351 347 2 1 359 354 341 0 37 35 360 340 330 330 329 332 345 62 91 72 34 143 135 131 126 132 140 142 142 142 145 151 149 148 147 148 153 158 162 166 169 181 181 179 185 186 177 161 155 161 167 172 164 160 162 161 159 163 168 170 175 177 163 131
7 2 352 17 13 13 352 357 3 18 1 344 341 334 329 315 322 309 42 15 344 344 347 346 358 352 348 360 338 24 33 32 349 325 321 321 318 351 27 36 41 60 69 48 54 95 108 111 112 123 139 149 151 147 147 146 150 152 157 163 161 167 177 182 185 184 180 159 158 164 162 163 167 174 168 155 148 152 156 151 146 161 167 173 122 123
357 347 13 1 352 348 5 344 311 326 344 347 342 333 328 316 308 12 23 332 329 338 343 353 356 2 359 3 3 18 356 335 302 298 322 346 19 32 49 57 56 47 42 41 79 91 92 92 105 111 104 93 116 144 146 151 150 156 158 157 163 174 181 179 166 159 162 154 155 161 160 156 166 170 161 146 145 146 146 153 155 153 155 144 122 128
359 316 337 334 358 353 2 348 324 277 36 348 340 330 315 308 19 9 326 318 335 349 351 4 3 4 358 355 347 345 325 318 346 5 2 24 29 31 41 51 55 49 33 30 34 82 103 104 106 103 102 107 95 89 158 152 150 154 157 161 173 179 160 146 151 149 143 142 152 151 144 150 142 143 134 120 127 146 153 151 148 153 150 142 139 136
346 341 346 357 339 243 9 324 340 7 348 353 331 324 1 24 346 317 308 342 355 358 7 4 5 3 357 356 360 360 8 22 19 360 12 32 35 37 40 44 51 55 48 30 32 35 62 84 74 66 60 79 101 78 17 148 150 143 139 148 155 135 134 136 134 137 138 142 148 151 150 131 139 144 141 136 138 148 146 140 139 145 146 140 136 132
349 337 336 341 5 329 6 10 9 296 309 337 349 1 334 349 331 332 340 356 3 11 6 356 4 1 1 357 356 15 25 18 12 1 19 27 29 37 38 41 49 60 69 66 42 64 67 69 70 64 61 48 62 95 94 53 45 110 117 106 78 98 111 118 125 128 129 129 135 150 141 131 145 152 121 114 131 150 140 137 140 144 149 146 139 138
1 359 330 321 340 7 25 356 327 323 311 334 348 345 341 344 351 348 355 9 3 14 351 7 5 1 3 356 13 21 21 11 5 3 18 23 29 29 32 32 33 52 71 79 94 91 101 98 91 87 78 68 57 75 95 129 139 105 92 94 93 86 95 113 115 105 110 122 128 122 118 129 135 117 88 98 132 148 141 135 141 139 152 142 139 142
282 330 321 360 335 338 208 351 324 336 342 349 356 355 351 351 352 355 358 7 11 9 10 11 4 2 1 1 20 23 20 3 11 16 18 21 29 26 24 35 34 26 39 57 54 59 99 109 103 102 100 90 73 86 74 105 121 104 109 105 99 102 110 114 120 127 132 133 135 137 149 148 101 87 94 109 174 159 142 144 146 143 150 142 144 146
298 336 4 18 318 348 5 338 351 339 339 357 353 352 354 357 353 355 2 7 10 8 14 12 5 9 9 12 20 18 17 11 16 18 20 21 26 26 22 22 33 36 30 37 34 47 53 60 86 92 97 97 120 123 129 127 113 115 114 109 112 110 110 110 103 93 86 114 128 119 122 110 90 84 87 144 131 101 95 116 138 143 146 154 152 151
335 3 69 359 327 12 316 321 338 323 288 357 358 354 352 349 349 355 2 4 6 10 17 10 9 18 13 22 14 9 16 20 20 15 18 19 21 20 22 22 24 39 32 32 35 45 56 52 50 55 67 66 42 60 76 71 78 89 112 118 121 126 122 113 106 107 104 91 84 91 95 92 97 96 90 65 59 57 54 46 48 82 88 103 133 152
282 345 3 339 344 290 265 296 339 315 288 355 359 359 353 351 348 352 359 5 3 7 11 13 19 18 19 17 13 14 18 21 20 17 22 20 20 17 16 19 24 34 38 40 43 50 52 52 55 51 49 43 30 30 68 79 84 90 88 93 103 106 97 92 88 91 86 86 89 83 84 84 96 122 111 93 73 62 51 21 32 65 77 51 5 328
34 4 293 19 348 12 357 346 350 4 353 352 355 354 347 346 349 354 360 3 7 9 7 11 15 18 21 20 18 20 22 20 19 20 24 23 21 16 13 16 21 24 27 26 52 57 57 52 57 58 53 45 39 57 68 73 78 82 107 115 118 113 105 101 96 91 91 96 94 93 96 105 111 99 90 98 98 89 69 57 57 46 54 20 8 46
31 331 8 14 3 354 337 337 348 329 313 342 335 344 347 344 350 358 1 1 3 5 5 9 11 13 19 23 21 24 21 21 19 20 27 24 19 18 18 18 21 21 26 26 39 41 55 59 61 62 58 55 62 69 87 96 90 82 71 88 106 111 114 113 108 110 113 116 120 133 134 123 107 100 100 99 100 96 98 84 51 49 47 47 50 53